Time,TemperatureF,DewpointF,PressureIn,WindDirection,WindDirectionDegrees,WindSpeedMPH,WindSpeedGustMPH,Humidity,HourlyPrecipIn,Conditions,Clouds,dailyrainin,SoftwareType,DateUTC
2013-09-08 00:01:00,62.9,57.0,29.91,West,280,0.0,0.0,81,0.00,,,0.00,VWS V14.01,2013-09-08 04:01:00,
2013-09-08 00:02:00,62.9,57.0,29.91,West,280,0.0,0.0,81,0.00,,,0.00,VWS V14.01,2013-09-08 04:02:00,
2013-09-08 00:07:00,62.9,57.0,29.91,West,281,0.0,0.0,81,0.00,,,0.00,VWS V14.01,2013-09-08 04:07:00,
2013-09-08 00:12:00,62.9,57.0,29.91,West,281,0.0,0.0,81,0.00,,,0.00,VWS V14.01,2013-09-08 04:12:00,
2013-09-08 00:17:00,62.9,56.6,29.90,West,281,0.0,2.0,80,0.00,,,0.00,VWS V14.01,2013-09-08 04:17:00,
2013-09-08 00:22:00,63.0,57.1,29.90,West,281,0.0,0.0,81,0.00,,,0.00,VWS V14.01,2013-09-08 04:22:00,
2013-09-08 00:27:00,63.0,56.7,29.90,West,280,0.0,1.0,80,0.00,,,0.00,VWS V14.01,2013-09-08 04:27:00,
2013-09-08 00:32:00,63.0,56.7,29.91,West,280,0.0,0.0,80,0.00,,,0.00,VWS V14.01,2013-09-08 04:32:00,
2013-09-08 00:37:00,63.0,56.4,29.91,West,280,0.0,0.0,79,0.00,,,0.00,VWS V14.01,2013-09-08 04:37:00,
2013-09-08 00:42:00,63.1,56.5,29.91,West,280,0.0,0.0,79,0.00,,,0.00,VWS V14.01,2013-09-08 04:42:00,
2013-09-08 00:47:00,63.2,56.6,29.91,WNW,285,0.0,1.0,79,0.00,,,0.00,VWS V14.01,2013-09-08 04:47:00,
2013-09-08 00:52:00,63.2,56.6,29.91,West,269,0.0,0.0,79,0.00,,,0.00,VWS V14.01,2013-09-08 04:52:00,
2013-09-08 00:57:00,63.2,56.9,29.91,West,269,0.0,0.0,80,0.00,,,0.00,VWS V14.01,2013-09-08 04:57:00,
2013-09-08 01:02:00,63.2,56.9,29.90,West,269,0.0,0.0,80,0.00,,,0.00,VWS V14.01,2013-09-08 05:02:00,
2013-09-08 01:07:00,63.2,57.3,29.90,West,269,0.0,0.0,81,0.00,,,0.00,VWS V14.01,2013-09-08 05:07:00,
2013-09-08 01:12:00,63.2,57.6,29.90,West,269,0.0,0.0,82,0.00,,,0.00,VWS V14.01,2013-09-08 05:12:00,
2013-09-08 01:17:00,63.1,57.5,29.90,West,269,0.0,0.0,82,0.00,,,0.00,VWS V14.01,2013-09-08 05:17:00,
2013-09-08 01:22:00,63.0,57.4,29.90,West,269,0.0,0.0,82,0.00,,,0.00,VWS V14.01,2013-09-08 05:22:00,
2013-09-08 01:27:00,62.8,57.6,29.90,West,269,0.0,0.0,83,0.00,,,0.00,VWS V14.01,2013-09-08 05:27:00,
2013-09-08 01:32:00,62.7,57.5,29.90,West,269,0.0,0.0,83,0.00,,,0.00,VWS V14.01,2013-09-08 05:32:00,
2013-09-08 01:37:00,62.6,57.4,29.90,West,269,0.0,0.0,83,0.00,,,0.00,VWS V14.01,2013-09-08 05:37:00,
2013-09-08 01:42:00,62.5,57.3,29.90,West,269,0.0,0.0,83,0.00,,,0.00,VWS V14.01,2013-09-08 05:42:00,
2013-09-08 01:47:00,62.4,57.5,29.89,West,269,0.0,0.0,84,0.00,,,0.00,VWS V14.01,2013-09-08 05:47:00,
2013-09-08 01:52:00,62.4,57.5,29.89,West,269,0.0,0.0,84,0.00,,,0.00,VWS V14.01,2013-09-08 05:52:00,
2013-09-08 01:57:00,62.3,57.4,29.89,West,269,0.0,0.0,84,0.00,,,0.00,VWS V14.01,2013-09-08 05:57:00,
2013-09-08 02:02:00,62.3,57.7,29.88,West,269,0.0,0.0,85,0.00,,,0.00,VWS V14.01,2013-09-08 06:02:00,
2013-09-08 02:07:00,62.3,57.7,29.88,West,269,0.0,0.0,85,0.00,,,0.00,VWS V14.01,2013-09-08 06:07:00,
2013-09-08 02:12:00,62.2,57.6,29.88,West,269,0.0,0.0,85,0.00,,,0.00,VWS V14.01,2013-09-08 06:12:00,
2013-09-08 02:17:00,62.1,57.5,29.88,West,269,0.0,0.0,85,0.00,,,0.00,VWS V14.01,2013-09-08 06:17:00,
2013-09-08 02:22:00,62.1,57.5,29.88,West,269,0.0,0.0,85,0.00,,,0.00,VWS V14.01,2013-09-08 06:22:00,
2013-09-08 02:27:00,62.0,57.5,29.88,West,269,0.0,0.0,85,0.00,,,0.00,VWS V14.01,2013-09-08 06:27:00,
2013-09-08 02:32:00,62.0,57.5,29.88,West,269,0.0,0.0,85,0.00,,,0.00,VWS V14.01,2013-09-08 06:32:00,
2013-09-08 02:37:00,62.0,57.5,29.88,West,269,0.0,0.0,85,0.00,,,0.00,VWS V14.01,2013-09-08 06:37:00,
2013-09-08 02:42:00,62.0,57.5,29.88,West,269,0.0,0.0,85,0.00,,,0.00,VWS V14.01,2013-09-08 06:42:00,
2013-09-08 02:47:00,62.0,57.5,29.88,West,269,0.0,0.0,85,0.00,,,0.00,VWS V14.01,2013-09-08 06:47:00,
2013-09-08 02:52:00,62.0,57.5,29.88,West,269,0.0,0.0,85,0.00,,,0.00,VWS V14.01,2013-09-08 06:52:00,
2013-09-08 02:57:00,62.0,57.5,29.88,West,269,0.0,0.0,85,0.00,,,0.00,VWS V14.01,2013-09-08 06:57:00,
2013-09-08 03:02:00,62.0,57.5,29.87,West,269,0.0,0.0,85,0.00,,,0.00,VWS V14.01,2013-09-08 07:02:00,
2013-09-08 03:07:00,62.0,57.8,29.87,West,269,0.0,0.0,86,0.00,,,0.00,VWS V14.01,2013-09-08 07:07:00,
2013-09-08 03:12:00,62.0,57.8,29.87,West,269,0.0,0.0,86,0.00,,,0.00,VWS V14.01,2013-09-08 07:12:00,
2013-09-08 03:17:00,62.0,57.8,29.86,West,269,0.0,0.0,86,0.00,,,0.00,VWS V14.01,2013-09-08 07:17:00,
2013-09-08 03:22:00,62.0,57.8,29.86,West,269,0.0,0.0,86,0.00,,,0.00,VWS V14.01,2013-09-08 07:22:00,
2013-09-08 03:27:00,62.0,57.8,29.86,West,269,0.0,0.0,86,0.00,,,0.00,VWS V14.01,2013-09-08 07:27:00,
2013-09-08 03:32:00,62.0,57.8,29.85,West,269,0.0,0.0,86,0.00,,,0.00,VWS V14.01,2013-09-08 07:32:00,
2013-09-08 03:37:00,62.0,57.8,29.85,West,269,0.0,0.0,86,0.00,,,0.00,VWS V14.01,2013-09-08 07:37:00,
2013-09-08 03:42:00,62.0,57.8,29.85,West,269,0.0,0.0,86,0.00,,,0.00,VWS V14.01,2013-09-08 07:42:00,
2013-09-08 03:47:00,62.0,57.5,29.85,West,269,0.0,0.0,85,0.00,,,0.00,VWS V14.01,2013-09-08 07:47:00,
2013-09-08 03:52:00,62.0,57.5,29.85,West,269,0.0,0.0,85,0.00,,,0.00,VWS V14.01,2013-09-08 07:52:00,
2013-09-08 03:57:00,61.9,57.3,29.85,West,269,0.0,0.0,85,0.00,,,0.00,VWS V14.01,2013-09-08 07:57:00,
2013-09-08 04:02:00,61.8,57.2,29.85,West,269,0.0,0.0,85,0.00,,,0.00,VWS V14.01,2013-09-08 08:02:00,
2013-09-08 04:07:00,61.8,57.6,29.85,West,269,0.0,0.0,86,0.00,,,0.00,VWS V14.01,2013-09-08 08:07:00,
2013-09-08 04:12:00,61.7,57.5,29.85,West,269,0.0,0.0,86,0.00,,,0.00,VWS V14.01,2013-09-08 08:12:00,
2013-09-08 04:17:00,61.6,57.4,29.84,West,269,0.0,0.0,86,0.00,,,0.00,VWS V14.01,2013-09-08 08:17:00,
2013-09-08 04:22:00,61.4,57.2,29.84,West,269,0.0,0.0,86,0.00,,,0.00,VWS V14.01,2013-09-08 08:22:00,
2013-09-08 04:27:00,61.3,57.1,29.84,West,269,0.0,0.0,86,0.00,,,0.00,VWS V14.01,2013-09-08 08:27:00,
2013-09-08 04:32:00,61.2,57.0,29.84,West,269,0.0,0.0,86,0.00,,,0.00,VWS V14.01,2013-09-08 08:32:00,
2013-09-08 04:37:00,61.1,56.9,29.84,West,269,0.0,0.0,86,0.00,,,0.00,VWS V14.01,2013-09-08 08:37:00,
2013-09-08 04:42:00,61.0,56.8,29.84,West,269,0.0,0.0,86,0.00,,,0.00,VWS V14.01,2013-09-08 08:42:00,
2013-09-08 04:46:00,60.9,56.7,29.84,West,269,0.0,0.0,86,0.00,,,0.00,VWS V14.01,2013-09-08 08:46:00,
2013-09-08 04:51:00,60.8,56.6,29.84,West,269,0.0,0.0,86,0.00,,,0.00,VWS V14.01,2013-09-08 08:51:00,
2013-09-08 04:56:00,60.6,56.4,29.84,West,269,0.0,0.0,86,0.00,,,0.00,VWS V14.01,2013-09-08 08:56:00,
2013-09-08 05:01:00,60.5,56.6,29.84,West,269,0.0,0.0,87,0.00,,,0.00,VWS V14.01,2013-09-08 09:01:00,
2013-09-08 05:06:00,60.4,56.5,29.84,West,269,0.0,0.0,87,0.00,,,0.00,VWS V14.01,2013-09-08 09:06:00,
2013-09-08 05:11:00,60.3,56.4,29.84,West,269,0.0,0.0,87,0.00,,,0.00,VWS V14.01,2013-09-08 09:11:00,
2013-09-08 05:16:00,60.3,56.4,29.84,West,269,0.0,0.0,87,0.00,,,0.00,VWS V14.01,2013-09-08 09:16:00,
2013-09-08 05:21:00,60.2,56.3,29.84,West,269,0.0,0.0,87,0.00,,,0.00,VWS V14.01,2013-09-08 09:21:00,
2013-09-08 05:26:00,60.1,56.5,29.84,West,269,0.0,0.0,88,0.00,,,0.00,VWS V14.01,2013-09-08 09:26:00,
2013-09-08 05:31:00,60.1,56.5,29.84,West,269,0.0,0.0,88,0.00,,,0.00,VWS V14.01,2013-09-08 09:31:00,
2013-09-08 05:36:00,60.0,56.4,29.84,West,269,0.0,0.0,88,0.00,,,0.00,VWS V14.01,2013-09-08 09:36:00,
2013-09-08 05:41:00,60.0,56.4,29.84,West,269,0.0,0.0,88,0.00,,,0.00,VWS V14.01,2013-09-08 09:41:00,
2013-09-08 05:46:00,60.0,56.4,29.83,West,269,0.0,1.0,88,0.00,,,0.00,VWS V14.01,2013-09-08 09:46:00,
2013-09-08 05:51:00,60.0,56.4,29.83,West,269,0.0,0.0,88,0.00,,,0.00,VWS V14.01,2013-09-08 09:51:00,
2013-09-08 05:56:00,60.0,56.4,29.83,West,269,0.0,1.0,88,0.00,,,0.00,VWS V14.01,2013-09-08 09:56:00,
2013-09-08 06:01:00,60.0,56.4,29.82,West,269,0.0,0.0,88,0.00,,,0.00,VWS V14.01,2013-09-08 10:01:00,
2013-09-08 06:06:00,60.1,56.5,29.82,West,269,0.0,0.0,88,0.00,,,0.00,VWS V14.01,2013-09-08 10:06:00,
2013-09-08 06:11:00,60.1,56.5,29.82,West,269,0.0,0.0,88,0.00,,,0.00,VWS V14.01,2013-09-08 10:11:00,
2013-09-08 06:16:00,60.1,56.5,29.82,West,269,0.0,0.0,88,0.00,,,0.00,VWS V14.01,2013-09-08 10:16:00,
2013-09-08 06:21:00,60.1,56.5,29.82,West,269,0.0,0.0,88,0.00,,,0.00,VWS V14.01,2013-09-08 10:21:00,
2013-09-08 06:26:00,60.0,56.4,29.82,West,269,0.0,0.0,88,0.00,,,0.00,VWS V14.01,2013-09-08 10:26:00,
2013-09-08 06:31:00,60.0,56.4,29.84,West,269,0.0,0.0,88,0.00,,,0.00,VWS V14.01,2013-09-08 10:31:00,
2013-09-08 06:36:00,60.0,56.4,29.84,West,269,0.0,0.0,88,0.00,,,0.00,VWS V14.01,2013-09-08 10:36:00,
2013-09-08 06:41:00,60.0,56.4,29.84,West,269,0.0,0.0,88,0.00,,,0.00,VWS V14.01,2013-09-08 10:41:00,
2013-09-08 06:46:00,60.0,56.8,29.84,West,272,0.0,1.0,89,0.00,,,0.00,VWS V14.01,2013-09-08 10:46:00,
2013-09-08 06:51:00,60.0,56.8,29.84,West,272,0.0,0.0,89,0.00,,,0.00,VWS V14.01,2013-09-08 10:51:00,
2013-09-08 06:56:00,60.0,56.8,29.84,West,272,0.0,1.0,89,0.00,,,0.00,VWS V14.01,2013-09-08 10:56:00,
2013-09-08 07:01:00,60.1,56.8,29.84,West,272,0.0,0.0,89,0.00,,,0.00,VWS V14.01,2013-09-08 11:01:00,
2013-09-08 07:06:00,60.1,56.8,29.84,WNW,285,0.0,2.0,89,0.00,,,0.00,VWS V14.01,2013-09-08 11:06:00,
2013-09-08 07:11:00,60.2,57.0,29.84,WNW,285,0.0,0.0,89,0.00,,,0.00,VWS V14.01,2013-09-08 11:11:00,
2013-09-08 07:16:00,60.2,57.0,29.84,WNW,298,0.0,0.0,89,0.00,,,0.00,VWS V14.01,2013-09-08 11:16:00,
2013-09-08 07:21:00,60.3,57.0,29.84,WNW,298,0.0,0.0,89,0.00,,,0.00,VWS V14.01,2013-09-08 11:21:00,
2013-09-08 07:26:00,60.3,57.0,29.84,WNW,298,0.0,0.0,89,0.00,,,0.00,VWS V14.01,2013-09-08 11:26:00,
2013-09-08 07:31:00,60.4,57.5,29.84,WNW,298,0.0,0.0,90,0.00,,,0.00,VWS V14.01,2013-09-08 11:31:00,
2013-09-08 07:36:00,60.5,57.6,29.84,WNW,300,0.0,1.0,90,0.00,,,0.00,VWS V14.01,2013-09-08 11:36:00,
2013-09-08 07:41:00,60.5,57.6,29.84,WNW,300,0.0,0.0,90,0.00,,,0.00,VWS V14.01,2013-09-08 11:41:00,
2013-09-08 07:46:00,60.7,57.8,29.84,WNW,300,0.0,2.0,90,0.00,,,0.00,VWS V14.01,2013-09-08 11:46:00,
2013-09-08 07:51:00,60.9,58.0,29.84,WNW,303,0.0,0.0,90,0.00,,,0.00,VWS V14.01,2013-09-08 11:51:00,
2013-09-08 07:56:00,61.0,58.0,29.84,West,270,0.0,3.0,90,0.00,,,0.00,VWS V14.01,2013-09-08 11:56:00,
2013-09-08 08:01:00,61.3,58.3,29.84,West,259,0.0,1.0,90,0.00,,,0.00,VWS V14.01,2013-09-08 12:01:00,
2013-09-08 08:06:00,61.5,58.2,29.84,NW,304,0.0,2.0,89,0.00,,,0.00,VWS V14.01,2013-09-08 12:06:00,
2013-09-08 08:11:00,61.7,58.4,29.84,NW,306,0.0,0.0,89,0.00,,,0.00,VWS V14.01,2013-09-08 12:11:00,
2013-09-08 08:16:00,61.9,58.6,29.84,NW,306,0.0,1.0,89,0.00,,,0.00,VWS V14.01,2013-09-08 12:16:00,
2013-09-08 08:21:00,62.2,58.9,29.84,NW,306,0.0,0.0,89,0.00,,,0.00,VWS V14.01,2013-09-08 12:21:00,
2013-09-08 08:26:00,62.4,59.1,29.84,WNW,287,0.0,3.0,89,0.00,,,0.00,VWS V14.01,2013-09-08 12:26:00,
2013-09-08 08:31:00,62.7,59.1,29.84,West,263,2.0,3.0,88,0.00,,,0.00,VWS V14.01,2013-09-08 12:31:00,
2013-09-08 08:36:00,63.1,59.5,29.84,WNW,290,0.0,3.0,88,0.00,,,0.00,VWS V14.01,2013-09-08 12:36:00,
2013-09-08 08:41:00,63.3,59.7,29.84,WNW,295,0.0,0.0,88,0.00,,,0.00,VWS V14.01,2013-09-08 12:41:00,
2013-09-08 08:46:00,63.6,60.0,29.84,WNW,294,0.0,1.0,88,0.00,,,0.00,VWS V14.01,2013-09-08 12:46:00,
2013-09-08 08:51:00,63.9,60.3,29.84,WNW,294,0.0,0.0,88,0.00,,,0.00,VWS V14.01,2013-09-08 12:51:00,
2013-09-08 08:56:00,64.2,60.3,29.84,WNW,294,0.0,2.0,87,0.00,,,0.00,VWS V14.01,2013-09-08 12:56:00,
2013-09-08 09:01:00,64.5,60.5,29.84,NW,319,0.0,0.0,87,0.00,,,0.00,VWS V14.01,2013-09-08 13:01:00,
2013-09-08 09:06:00,65.0,61.0,29.84,West,279,3.0,5.0,87,0.00,,,0.00,VWS V14.01,2013-09-08 13:06:00,
2013-09-08 09:11:00,65.4,61.1,29.84,NNE,30,0.0,0.0,86,0.00,,,0.00,VWS V14.01,2013-09-08 13:11:00,
2013-09-08 09:16:00,65.8,61.5,29.84,WNW,302,1.0,2.0,86,0.00,,,0.00,VWS V14.01,2013-09-08 13:16:00,
2013-09-08 09:21:00,66.2,61.6,29.84,NW,315,0.0,1.0,85,0.00,,,0.00,VWS V14.01,2013-09-08 13:21:00,
2013-09-08 09:26:00,66.6,62.0,29.84,WNW,288,0.0,5.0,85,0.00,,,0.00,VWS V14.01,2013-09-08 13:26:00,
2013-09-08 09:31:00,67.0,62.3,29.84,NNE,14,1.0,1.0,85,0.00,,,0.00,VWS V14.01,2013-09-08 13:31:00,
2013-09-08 09:36:00,67.5,62.2,29.84,ENE,77,2.0,7.0,83,0.00,,,0.00,VWS V14.01,2013-09-08 13:36:00,
2013-09-08 09:41:00,67.7,62.0,29.84,SSW,211,0.0,1.0,82,0.00,,,0.00,VWS V14.01,2013-09-08 13:41:00,
2013-09-08 09:46:00,68.0,62.7,29.84,NNE,16,0.0,6.0,83,0.00,,,0.00,VWS V14.01,2013-09-08 13:46:00,
2013-09-08 09:51:00,68.4,63.0,29.84,NNE,31,0.0,1.0,83,0.00,,,0.00,VWS V14.01,2013-09-08 13:51:00,
2013-09-08 09:56:00,68.8,63.1,29.84,WNW,297,1.0,4.0,82,0.00,,,0.00,VWS V14.01,2013-09-08 13:56:00,
2013-09-08 10:01:00,69.4,63.3,29.84,NNW,331,3.0,5.0,81,0.00,,,0.00,VWS V14.01,2013-09-08 14:01:00,
2013-09-08 10:06:00,70.1,64.0,29.84,East,81,1.0,8.0,81,0.00,,,0.00,VWS V14.01,2013-09-08 14:06:00,
2013-09-08 10:11:00,70.8,64.0,29.84,WNW,292,12.0,12.0,79,0.00,,,0.00,VWS V14.01,2013-09-08 14:11:00,
2013-09-08 10:16:00,71.3,64.1,29.84,WNW,284,5.0,12.0,78,0.00,,,0.00,VWS V14.01,2013-09-08 14:16:00,
2013-09-08 10:21:00,71.9,64.3,29.84,WNW,282,0.0,1.0,77,0.00,,,0.00,VWS V14.01,2013-09-08 14:21:00,
2013-09-08 10:26:00,72.2,64.2,29.84,West,265,4.0,9.0,76,0.00,,,0.00,VWS V14.01,2013-09-08 14:26:00,
2013-09-08 10:31:00,72.2,64.2,29.84,NNE,32,1.0,4.0,76,0.00,,,0.00,VWS V14.01,2013-09-08 14:31:00,
2013-09-08 10:36:00,72.0,64.0,29.84,East,79,0.0,4.0,76,0.00,,,0.00,VWS V14.01,2013-09-08 14:36:00,
2013-09-08 10:41:00,71.7,63.7,29.84,East,80,1.0,1.0,76,0.00,,,0.00,VWS V14.01,2013-09-08 14:41:00,
2013-09-08 10:46:00,71.6,64.0,29.84,NW,315,7.0,7.0,77,0.00,,,0.00,VWS V14.01,2013-09-08 14:46:00,
2013-09-08 10:51:00,71.7,64.1,29.84,East,82,0.0,0.0,77,0.00,,,0.00,VWS V14.01,2013-09-08 14:51:00,
2013-09-08 10:56:00,71.7,64.5,29.84,North,350,0.0,4.0,78,0.00,,,0.00,VWS V14.01,2013-09-08 14:56:00,
2013-09-08 11:01:00,71.6,64.0,29.84,SW,229,0.0,0.0,77,0.00,,,0.00,VWS V14.01,2013-09-08 15:01:00,
2013-09-08 11:06:00,71.7,64.5,29.84,WNW,300,1.0,4.0,78,0.00,,,0.00,VWS V14.01,2013-09-08 15:06:00,
2013-09-08 11:11:00,71.9,65.0,29.84,NNE,13,4.0,4.0,79,0.00,,,0.00,VWS V14.01,2013-09-08 15:11:00,
2013-09-08 11:16:00,71.9,64.7,29.84,NE,48,2.0,7.0,78,0.00,,,0.00,VWS V14.01,2013-09-08 15:16:00,
2013-09-08 11:21:00,71.8,64.6,29.84,West,263,1.0,4.0,78,0.00,,,0.00,VWS V14.01,2013-09-08 15:21:00,
2013-09-08 11:26:00,71.7,64.5,29.84,ENE,63,1.0,7.0,78,0.00,,,0.00,VWS V14.01,2013-09-08 15:26:00,
2013-09-08 11:31:00,71.8,64.9,29.84,SE,134,1.0,2.0,79,0.00,,,0.00,VWS V14.01,2013-09-08 15:31:00,
2013-09-08 11:36:00,71.9,65.0,29.84,NE,48,0.0,3.0,79,0.00,,,0.00,VWS V14.01,2013-09-08 15:36:00,
2013-09-08 11:41:00,72.0,65.1,29.84,ESE,108,0.0,0.0,79,0.00,,,0.00,VWS V14.01,2013-09-08 15:41:00,
2013-09-08 11:46:00,72.1,65.2,29.84,ENE,61,2.0,5.0,79,0.00,,,0.00,VWS V14.01,2013-09-08 15:46:00,
2013-09-08 11:51:00,72.1,64.9,29.84,NNW,338,2.0,2.0,78,0.00,,,0.00,VWS V14.01,2013-09-08 15:51:00,
2013-09-08 11:56:00,72.1,64.5,29.84,SSW,205,0.0,5.0,77,0.00,,,0.00,VWS V14.01,2013-09-08 15:56:00,
2013-09-08 12:01:00,72.1,64.5,29.85,South,180,0.0,2.0,77,0.00,,,0.00,VWS V14.01,2013-09-08 16:01:00,
2013-09-08 12:06:00,72.3,64.7,29.85,South,185,3.0,5.0,77,0.00,,,0.00,VWS V14.01,2013-09-08 16:06:00,
2013-09-08 12:11:00,72.6,64.6,29.85,WNW,286,1.0,1.0,76,0.00,,,0.00,VWS V14.01,2013-09-08 16:11:00,
2013-09-08 12:16:00,72.6,64.6,29.85,East,94,3.0,4.0,76,0.00,,,0.00,VWS V14.01,2013-09-08 16:16:00,
2013-09-08 12:21:00,72.4,64.4,29.85,ENE,58,1.0,1.0,76,0.00,,,0.00,VWS V14.01,2013-09-08 16:21:00,
2013-09-08 12:26:00,72.3,64.3,29.85,NE,54,3.0,4.0,76,0.00,,,0.00,VWS V14.01,2013-09-08 16:26:00,
2013-09-08 12:31:00,72.0,64.0,29.85,NE,55,2.0,2.0,76,0.00,,,0.00,VWS V14.01,2013-09-08 16:31:00,
2013-09-08 12:36:00,72.0,64.0,29.85,East,82,1.0,6.0,76,0.00,,,0.00,VWS V14.01,2013-09-08 16:36:00,
2013-09-08 12:41:00,72.2,63.8,29.85,NNE,25,0.0,1.0,75,0.00,,,0.00,VWS V14.01,2013-09-08 16:41:00,
2013-09-08 12:46:00,72.5,63.8,29.85,ENE,63,0.0,4.0,74,0.00,,,0.00,VWS V14.01,2013-09-08 16:46:00,
2013-09-08 12:51:00,72.9,63.8,29.85,East,92,0.0,9.0,73,0.00,,,0.00,VWS V14.01,2013-09-08 16:51:00,
2013-09-08 12:56:00,73.2,63.6,29.85,NE,45,1.0,10.0,72,0.00,,,0.00,VWS V14.01,2013-09-08 16:56:00,
2013-09-08 13:01:00,73.1,63.2,29.85,East,94,1.0,2.0,71,0.00,,,0.00,VWS V14.01,2013-09-08 17:01:00,
2013-09-08 13:06:00,72.9,63.3,29.85,ENE,78,3.0,3.0,72,0.00,,,0.00,VWS V14.01,2013-09-08 17:06:00,
2013-09-08 13:11:00,72.9,63.3,29.85,ENE,57,1.0,7.0,72,0.00,,,0.00,VWS V14.01,2013-09-08 17:11:00,
2013-09-08 13:16:00,73.0,63.5,29.85,SSE,164,3.0,7.0,72,0.00,,,0.00,VWS V14.01,2013-09-08 17:16:00,
2013-09-08 13:21:00,73.0,63.0,29.85,NNE,12,1.0,1.0,71,0.00,,,0.00,VWS V14.01,2013-09-08 17:21:00,
2013-09-08 13:26:00,73.0,63.0,29.85,WSW,256,4.0,6.0,71,0.00,,,0.00,VWS V14.01,2013-09-08 17:26:00,
2013-09-08 13:31:00,73.3,63.7,29.85,SE,128,4.0,4.0,72,0.00,,,0.00,VWS V14.01,2013-09-08 17:31:00,
2013-09-08 13:36:00,73.6,63.6,29.85,ESE,106,0.0,4.0,71,0.00,,,0.00,VWS V14.01,2013-09-08 17:36:00,
2013-09-08 13:41:00,73.7,62.9,29.85,NE,55,0.0,0.0,69,0.00,,,0.00,VWS V14.01,2013-09-08 17:41:00,
2013-09-08 13:46:00,73.8,63.0,29.85,NE,56,0.0,2.0,69,0.00,,,0.00,VWS V14.01,2013-09-08 17:46:00,
2013-09-08 13:51:00,73.7,62.5,29.85,West,275,6.0,6.0,68,0.00,,,0.00,VWS V14.01,2013-09-08 17:51:00,
2013-09-08 13:56:00,73.8,62.6,29.85,SE,131,2.0,8.0,68,0.00,,,0.00,VWS V14.01,2013-09-08 17:56:00,
2013-09-08 14:01:00,73.7,62.9,29.85,East,87,3.0,3.0,69,0.00,,,0.00,VWS V14.01,2013-09-08 18:01:00,
2013-09-08 14:06:00,73.7,61.7,29.85,SE,138,4.0,6.0,66,0.00,,,0.00,VWS V14.01,2013-09-08 18:06:00,
2013-09-08 14:11:00,73.7,62.1,29.85,ENE,74,2.0,3.0,67,0.00,,,0.00,VWS V14.01,2013-09-08 18:11:00,
2013-09-08 14:16:00,73.9,61.4,29.85,South,180,1.0,7.0,65,0.00,,,0.00,VWS V14.01,2013-09-08 18:16:00,
2013-09-08 14:21:00,74.0,61.1,29.85,NE,55,2.0,4.0,64,0.00,,,0.00,VWS V14.01,2013-09-08 18:21:00,
2013-09-08 14:26:00,74.1,60.7,29.85,WNW,297,7.0,8.0,63,0.00,,,0.00,VWS V14.01,2013-09-08 18:26:00,
2013-09-08 14:31:00,74.1,60.7,29.86,ENE,65,1.0,1.0,63,0.00,,,0.00,VWS V14.01,2013-09-08 18:31:00,
2013-09-08 14:36:00,74.0,61.1,29.86,WNW,300,0.0,7.0,64,0.00,,,0.00,VWS V14.01,2013-09-08 18:36:00,
2013-09-08 14:41:00,74.0,61.9,29.86,NE,39,3.0,3.0,66,0.00,,,0.00,VWS V14.01,2013-09-08 18:41:00,
2013-09-08 14:46:00,74.0,61.5,29.87,ENE,75,4.0,5.0,65,0.00,,,0.00,VWS V14.01,2013-09-08 18:46:00,
2013-09-08 14:51:00,73.9,61.8,29.87,ENE,66,4.0,4.0,66,0.00,,,0.00,VWS V14.01,2013-09-08 18:51:00,
2013-09-08 14:56:00,73.8,61.3,29.87,NW,310,1.0,7.0,65,0.00,,,0.00,VWS V14.01,2013-09-08 18:56:00,
2013-09-08 15:01:00,73.9,60.5,29.86,South,189,0.0,2.0,63,0.00,,,0.00,VWS V14.01,2013-09-08 19:01:00,
2013-09-08 15:06:00,73.9,59.6,29.86,East,84,1.0,10.0,61,0.00,,,0.00,VWS V14.01,2013-09-08 19:06:00,
2013-09-08 15:11:00,73.8,59.5,29.86,SE,142,1.0,10.0,61,0.00,,,0.00,VWS V14.01,2013-09-08 19:11:00,
2013-09-08 15:16:00,73.9,59.2,29.87,East,84,3.0,7.0,60,0.00,,,0.00,VWS V14.01,2013-09-08 19:16:00,
2013-09-08 15:21:00,73.9,59.2,29.87,East,95,2.0,4.0,60,0.00,,,0.00,VWS V14.01,2013-09-08 19:21:00,
2013-09-08 15:26:00,73.9,59.2,29.87,East,86,0.0,12.0,60,0.00,,,0.00,VWS V14.01,2013-09-08 19:26:00,
2013-09-08 15:31:00,73.6,59.3,29.87,ENE,78,0.0,0.0,61,0.00,,,0.00,VWS V14.01,2013-09-08 19:31:00,
2013-09-08 15:36:00,73.4,59.2,29.87,NNW,346,0.0,8.0,61,0.00,,,0.00,VWS V14.01,2013-09-08 19:36:00,
2013-09-08 15:41:00,73.4,58.7,29.87,WNW,302,0.0,2.0,60,0.00,,,0.00,VWS V14.01,2013-09-08 19:41:00,
2013-09-08 15:46:00,73.5,59.2,29.88,NE,40,3.0,5.0,61,0.00,,,0.00,VWS V14.01,2013-09-08 19:46:00,
2013-09-08 15:51:00,73.5,57.8,29.88,ESE,103,2.0,5.0,58,0.00,,,0.00,VWS V14.01,2013-09-08 19:51:00,
2013-09-08 15:56:00,73.6,58.4,29.88,NNE,30,0.0,5.0,59,0.00,,,0.00,VWS V14.01,2013-09-08 19:56:00,
2013-09-08 16:01:00,73.7,58.5,29.88,SE,130,5.0,5.0,59,0.00,,,0.00,VWS V14.01,2013-09-08 20:01:00,
2013-09-08 16:06:00,73.5,57.8,29.88,West,259,0.0,9.0,58,0.00,,,0.00,VWS V14.01,2013-09-08 20:06:00,
2013-09-08 16:11:00,73.3,57.2,29.88,ENE,77,2.0,5.0,57,0.00,,,0.00,VWS V14.01,2013-09-08 20:11:00,
2013-09-08 16:16:00,73.2,56.1,29.89,ENE,65,0.0,5.0,55,0.00,,,0.00,VWS V14.01,2013-09-08 20:16:00,
2013-09-08 16:21:00,73.1,56.5,29.89,South,184,4.0,4.0,56,0.00,,,0.00,VWS V14.01,2013-09-08 20:21:00,
2013-09-08 16:26:00,73.0,56.9,29.89,ENE,74,4.0,4.0,57,0.00,,,0.00,VWS V14.01,2013-09-08 20:26:00,
2013-09-08 16:31:00,73.0,56.4,29.89,WNW,284,0.0,0.0,56,0.00,,,0.00,VWS V14.01,2013-09-08 20:31:00,
2013-09-08 16:36:00,73.0,56.4,29.89,NNW,338,1.0,6.0,56,0.00,,,0.00,VWS V14.01,2013-09-08 20:36:00,
2013-09-08 16:41:00,73.1,56.0,29.89,North,5,0.0,0.0,55,0.00,,,0.00,VWS V14.01,2013-09-08 20:41:00,
2013-09-08 16:46:00,73.2,56.6,29.89,SSE,158,1.0,2.0,56,0.00,,,0.00,VWS V14.01,2013-09-08 20:46:00,
2013-09-08 16:51:00,73.3,55.2,29.89,NE,41,2.0,2.0,53,0.00,,,0.00,VWS V14.01,2013-09-08 20:51:00,
2013-09-08 16:56:00,73.3,54.1,29.89,West,274,3.0,4.0,51,0.00,,,0.00,VWS V14.01,2013-09-08 20:56:00,
2013-09-08 17:01:00,73.4,55.2,29.90,NE,51,1.0,2.0,53,0.00,,,0.00,VWS V14.01,2013-09-08 21:01:00,
2013-09-08 17:06:00,73.3,53.6,29.90,WNW,290,1.0,5.0,50,0.00,,,0.00,VWS V14.01,2013-09-08 21:06:00,
2013-09-08 17:11:00,73.0,52.2,29.90,ENE,66,0.0,0.0,48,0.00,,,0.00,VWS V14.01,2013-09-08 21:11:00,
2013-09-08 17:16:00,72.9,53.2,29.90,NW,317,5.0,6.0,50,0.00,,,0.00,VWS V14.01,2013-09-08 21:16:00,
2013-09-08 17:21:00,72.8,53.1,29.90,West,281,0.0,0.0,50,0.00,,,0.00,VWS V14.01,2013-09-08 21:21:00,
2013-09-08 17:26:00,72.8,52.5,29.90,NE,54,0.0,3.0,49,0.00,,,0.00,VWS V14.01,2013-09-08 21:26:00,
2013-09-08 17:31:00,72.8,54.2,29.91,WNW,284,1.0,3.0,52,0.00,,,0.00,VWS V14.01,2013-09-08 21:31:00,
2013-09-08 17:36:00,72.8,53.1,29.91,WNW,284,0.0,3.0,50,0.00,,,0.00,VWS V14.01,2013-09-08 21:36:00,
2013-09-08 17:41:00,72.6,51.8,29.91,NE,44,3.0,3.0,48,0.00,,,0.00,VWS V14.01,2013-09-08 21:41:00,
2013-09-08 17:46:00,72.1,51.3,29.92,NE,53,0.0,4.0,48,0.00,,,0.00,VWS V14.01,2013-09-08 21:46:00,
2013-09-08 17:51:00,71.5,50.2,29.92,East,84,0.0,1.0,47,0.00,,,0.00,VWS V14.01,2013-09-08 21:51:00,
2013-09-08 17:56:00,71.0,48.0,29.92,ENE,78,1.0,2.0,44,0.00,,,0.00,VWS V14.01,2013-09-08 21:56:00,
2013-09-08 18:01:00,70.5,47.6,29.93,ENE,74,0.0,0.0,44,0.00,,,0.00,VWS V14.01,2013-09-08 22:01:00,
2013-09-08 18:06:00,70.1,47.8,29.93,ENE,73,0.0,7.0,45,0.00,,,0.00,VWS V14.01,2013-09-08 22:06:00,
2013-09-08 18:11:00,69.8,47.5,29.93,ESE,107,0.0,0.0,45,0.00,,,0.00,VWS V14.01,2013-09-08 22:11:00,
2013-09-08 18:16:00,69.5,47.8,29.94,NE,45,1.0,2.0,46,0.00,,,0.00,VWS V14.01,2013-09-08 22:16:00,
2013-09-08 18:21:00,69.2,47.6,29.94,NE,42,1.0,1.0,46,0.00,,,0.00,VWS V14.01,2013-09-08 22:21:00,
2013-09-08 18:26:00,68.9,47.9,29.94,East,101,2.0,3.0,47,0.00,,,0.00,VWS V14.01,2013-09-08 22:26:00,
2013-09-08 18:31:00,68.6,47.0,29.95,NE,52,0.0,0.0,46,0.00,,,0.00,VWS V14.01,2013-09-08 22:31:00,
2013-09-08 18:36:00,68.4,48.0,29.95,NE,52,0.0,1.0,48,0.00,,,0.00,VWS V14.01,2013-09-08 22:36:00,
2013-09-08 18:41:00,68.1,47.1,29.95,West,260,0.0,3.0,47,0.00,,,0.00,VWS V14.01,2013-09-08 22:41:00,
2013-09-08 18:46:00,67.9,46.4,29.95,North,5,0.0,3.0,46,0.00,,,0.00,VWS V14.01,2013-09-08 22:46:00,
2013-09-08 18:51:00,67.5,47.1,29.95,ESE,108,0.0,3.0,48,0.00,,,0.00,VWS V14.01,2013-09-08 22:51:00,
2013-09-08 18:56:00,67.3,47.0,29.95,ESE,105,0.0,3.0,48,0.00,,,0.00,VWS V14.01,2013-09-08 22:56:00,
2013-09-08 19:01:00,67.0,46.7,29.95,East,94,1.0,3.0,48,0.00,,,0.00,VWS V14.01,2013-09-08 23:01:00,
2013-09-08 19:06:00,66.8,46.5,29.95,East,94,0.0,2.0,48,0.00,,,0.00,VWS V14.01,2013-09-08 23:06:00,
2013-09-08 19:11:00,66.7,48.0,29.95,ESE,104,0.0,2.0,51,0.00,,,0.00,VWS V14.01,2013-09-08 23:11:00,
2013-09-08 19:16:00,66.3,47.1,29.97,ESE,104,0.0,1.0,50,0.00,,,0.00,VWS V14.01,2013-09-08 23:16:00,
2013-09-08 19:21:00,65.9,46.2,29.97,ESE,104,0.0,0.0,49,0.00,,,0.00,VWS V14.01,2013-09-08 23:21:00,
2013-09-08 19:26:00,65.6,46.5,29.97,ESE,104,0.0,1.0,50,0.00,,,0.00,VWS V14.01,2013-09-08 23:26:00,
2013-09-08 19:31:00,65.2,47.2,29.97,ESE,104,0.0,1.0,52,0.00,,,0.00,VWS V14.01,2013-09-08 23:31:00,
2013-09-08 19:36:00,64.9,47.4,29.97,ESE,104,0.0,0.0,53,0.00,,,0.00,VWS V14.01,2013-09-08 23:36:00,
2013-09-08 19:41:00,64.8,47.8,29.97,ESE,104,0.0,0.0,54,0.00,,,0.00,VWS V14.01,2013-09-08 23:41:00,
2013-09-08 19:46:00,64.5,47.5,29.98,ESE,104,0.0,0.0,54,0.00,,,0.00,VWS V14.01,2013-09-08 23:46:00,
2013-09-08 19:51:00,64.3,47.3,29.98,ESE,104,0.0,0.0,54,0.00,,,0.00,VWS V14.01,2013-09-08 23:51:00,
2013-09-08 19:56:00,64.0,47.5,29.98,ESE,104,0.0,0.0,55,0.00,,,0.00,VWS V14.01,2013-09-08 23:56:00,
2013-09-08 20:01:00,63.8,48.3,29.98,ESE,104,0.0,0.0,57,0.00,,,0.00,VWS V14.01,2013-09-09 00:01:00,
2013-09-08 20:06:00,63.5,48.0,29.98,ESE,104,0.0,0.0,57,0.00,,,0.00,VWS V14.01,2013-09-09 00:06:00,
2013-09-08 20:11:00,63.1,48.1,29.98,ESE,104,0.0,0.0,58,0.00,,,0.00,VWS V14.01,2013-09-09 00:11:00,
2013-09-08 20:16:00,62.6,48.1,30.00,SE,138,0.0,2.0,59,0.00,,,0.00,VWS V14.01,2013-09-09 00:16:00,
2013-09-08 20:21:00,62.1,48.5,30.00,SE,138,0.0,2.0,61,0.00,,,0.00,VWS V14.01,2013-09-09 00:21:00,
2013-09-08 20:26:00,61.8,49.1,30.00,SE,137,0.0,1.0,63,0.00,,,0.00,VWS V14.01,2013-09-09 00:26:00,
2013-09-08 20:31:00,61.5,48.8,30.01,SE,137,0.0,1.0,63,0.00,,,0.00,VWS V14.01,2013-09-09 00:31:00,
2013-09-08 20:36:00,61.1,48.4,30.01,SE,137,0.0,1.0,63,0.00,,,0.00,VWS V14.01,2013-09-09 00:36:00,
2013-09-08 20:41:00,60.9,47.8,30.01,ENE,78,4.0,4.0,62,0.00,,,0.00,VWS V14.01,2013-09-09 00:41:00,
2013-09-08 20:46:00,61.0,47.5,30.01,SE,137,0.0,3.0,61,0.00,,,0.00,VWS V14.01,2013-09-09 00:46:00,
2013-09-08 20:51:00,61.1,47.6,30.01,SE,137,0.0,3.0,61,0.00,,,0.00,VWS V14.01,2013-09-09 00:51:00,
2013-09-08 20:56:00,61.1,48.4,30.01,SE,137,0.0,1.0,63,0.00,,,0.00,VWS V14.01,2013-09-09 00:56:00,
2013-09-08 21:01:00,61.1,48.4,30.02,SE,137,0.0,1.0,63,0.00,,,0.00,VWS V14.01,2013-09-09 01:01:00,
2013-09-08 21:06:00,60.9,47.8,30.02,SE,137,1.0,1.0,62,0.00,,,0.00,VWS V14.01,2013-09-09 01:06:00,
2013-09-08 21:11:00,60.8,48.1,30.02,SE,137,0.0,1.0,63,0.00,,,0.00,VWS V14.01,2013-09-09 01:11:00,
2013-09-08 21:16:00,60.6,48.0,30.02,SE,136,1.0,3.0,63,0.00,,,0.00,VWS V14.01,2013-09-09 01:16:00,
2013-09-08 21:21:00,60.5,47.9,30.02,SE,130,0.0,3.0,63,0.00,,,0.00,VWS V14.01,2013-09-09 01:21:00,
2013-09-08 21:26:00,60.4,47.8,30.02,NE,50,1.0,4.0,63,0.00,,,0.00,VWS V14.01,2013-09-09 01:26:00,
2013-09-08 21:31:00,60.3,47.2,30.03,SSE,155,0.0,4.0,62,0.00,,,0.00,VWS V14.01,2013-09-09 01:31:00,
2013-09-08 21:36:00,60.3,47.2,30.03,WNW,297,0.0,3.0,62,0.00,,,0.00,VWS V14.01,2013-09-09 01:36:00,
2013-09-08 21:41:00,60.2,47.2,30.03,NW,307,0.0,3.0,62,0.00,,,0.00,VWS V14.01,2013-09-09 01:41:00,
2013-09-08 21:46:00,60.1,47.0,30.04,NNE,18,0.0,2.0,62,0.00,,,0.00,VWS V14.01,2013-09-09 01:46:00,
2013-09-08 21:51:00,59.9,46.9,30.04,ENE,65,2.0,2.0,62,0.00,,,0.00,VWS V14.01,2013-09-09 01:51:00,
2013-09-08 21:56:00,59.8,47.2,30.04,ENE,63,0.0,1.0,63,0.00,,,0.00,VWS V14.01,2013-09-09 01:56:00,
2013-09-08 22:01:00,59.7,47.1,30.05,ENE,62,2.0,2.0,63,0.00,,,0.00,VWS V14.01,2013-09-09 02:01:00,
2013-09-08 22:06:00,59.6,47.4,30.05,East,98,0.0,2.0,64,0.00,,,0.00,VWS V14.01,2013-09-09 02:06:00,
2013-09-08 22:11:00,59.4,46.8,30.05,ESE,115,0.0,2.0,63,0.00,,,0.00,VWS V14.01,2013-09-09 02:11:00,
2013-09-08 22:16:00,59.3,47.1,30.05,ESE,115,2.0,2.0,64,0.00,,,0.00,VWS V14.01,2013-09-09 02:16:00,
2013-09-08 22:21:00,59.0,46.8,30.05,ESE,115,0.0,2.0,64,0.00,,,0.00,VWS V14.01,2013-09-09 02:21:00,
2013-09-08 22:26:00,58.7,47.4,30.05,NE,51,0.0,2.0,66,0.00,,,0.00,VWS V14.01,2013-09-09 02:26:00,
2013-09-08 22:31:00,58.6,47.3,30.05,NE,54,1.0,2.0,66,0.00,,,0.00,VWS V14.01,2013-09-09 02:31:00,
2013-09-08 22:35:00,58.4,47.1,30.05,SE,138,1.0,3.0,66,0.00,,,0.00,VWS V14.01,2013-09-09 02:35:00,
2013-09-08 22:40:00,58.2,47.3,30.05,ESE,110,0.0,3.0,67,0.00,,,0.00,VWS V14.01,2013-09-09 02:40:00,
2013-09-08 22:45:00,58.1,47.2,30.05,ESE,109,0.0,2.0,67,0.00,,,0.00,VWS V14.01,2013-09-09 02:45:00,
2013-09-08 22:50:00,58.0,47.1,30.05,ESE,109,0.0,2.0,67,0.00,,,0.00,VWS V14.01,2013-09-09 02:50:00,
2013-09-08 22:55:00,58.0,47.5,30.05,ESE,109,0.0,0.0,68,0.00,,,0.00,VWS V14.01,2013-09-09 02:55:00,
2013-09-08 23:00:00,57.7,46.8,30.06,ESE,109,0.0,2.0,67,0.00,,,0.00,VWS V14.01,2013-09-09 03:00:00,
2013-09-08 23:05:00,57.6,46.7,30.06,SE,126,0.0,2.0,67,0.00,,,0.00,VWS V14.01,2013-09-09 03:05:00,
2013-09-08 23:10:00,57.5,47.0,30.06,SE,126,0.0,2.0,68,0.00,,,0.00,VWS V14.01,2013-09-09 03:10:00,
2013-09-08 23:15:00,57.4,46.9,30.06,SE,126,0.0,0.0,68,0.00,,,0.00,VWS V14.01,2013-09-09 03:15:00,
2013-09-08 23:20:00,57.2,47.1,30.06,SE,126,0.0,1.0,69,0.00,,,0.00,VWS V14.01,2013-09-09 03:20:00,
2013-09-08 23:25:00,57.1,47.0,30.06,SE,126,0.0,0.0,69,0.00,,,0.00,VWS V14.01,2013-09-09 03:25:00,
2013-09-08 23:30:00,56.9,46.8,30.06,SE,126,0.0,1.0,69,0.00,,,0.00,VWS V14.01,2013-09-09 03:30:00,
2013-09-08 23:35:00,56.7,46.7,30.06,SE,126,0.0,0.0,69,0.00,,,0.00,VWS V14.01,2013-09-09 03:35:00,
2013-09-08 23:40:00,56.6,46.9,30.06,SE,126,0.0,1.0,70,0.00,,,0.00,VWS V14.01,2013-09-09 03:40:00,
2013-09-08 23:45:00,56.6,46.9,30.07,SE,126,0.0,0.0,70,0.00,,,0.00,VWS V14.01,2013-09-09 03:45:00,
2013-09-08 23:50:00,56.4,47.1,30.07,SE,126,0.0,1.0,71,0.00,,,0.00,VWS V14.01,2013-09-09 03:50:00,
2013-09-08 23:55:00,56.3,46.7,30.07,SE,126,0.0,0.0,70,0.00,,,0.00,VWS V14.01,2013-09-09 03:55:00,